Home   Weather   Sierra Vista   Past weeks

Flag for USA Past Weather in Sierra Vista, Arizona, USA — Yesterday and Last 2 Weeks

Now
79 °F

Mostly cloudy.


Feels Like: 80 °F
Forecast: 64 / 83 °F
Wind: 6 mph from East

Location: Fort Huachuca

Current Time: Aug 31, 2016 at 2:52:58 PM

Latest Report: Aug 31, 2016 at 1:58 PM


Visibility: 10 mi

Pressure: 29.93 "Hg (25.54 "Hg at 1390m altitude)

Humidity: 46%

Dew Point: 56 °F

Location of Sierra VistaLocation

Past Weather in Sierra Vista — Graph

°F

Sierra Vista Temperature Yesterday

Maximum temperature yesterday: 88 °F (at 2:58 PM)
Minimum temperature yesterday: 65 °F (at 5:58 AM)
Average temperature yesterday: 78 °F

High & Low Weather Summary for the Past Weeks

 TemperatureHumidityPressure
High92 °F (Aug 16, 2:58 PM)90% (Aug 20, 2:58 AM)30.25 "Hg (Aug 20, 2:58 AM)
Low59 °F (Aug 22, 2:58 AM)16% (Aug 29, 2:58 PM)29.81 "Hg (Aug 18, 6:58 PM)
Average75 °F42%29.93 "Hg
* Reported Aug 16 12:58 PM — Aug 31 12:58 PM, Sierra Vista, Weather by CustomWeather, © 2016

Note: Actual official high and low records may vary slightly from our data, if they occured in-between our weather recording intervals... More about our weather records

Advertising

Sierra Vista Weather History for the Previous 24 Hours

Scroll right to see more
 ConditionsComfort  
Time TempWeatherWind HumidityBarometerVisibility
12:58 PM
Wed, Aug 31
79 °FPartly sunny.14 mph49%29.96 "Hg10 mi
11:58 AM77 °FOvercast.10 mph52%29.97 "Hg10 mi
10:58 AM76 °FOvercast.13 mph56%29.98 "Hg10 mi
9:58 AM75 °FOvercast.12 mph57%29.98 "Hg10 mi
8:58 AM73 °FOvercast.9 mph61%29.97 "Hg10 mi
7:58 AM73 °FOvercast.10 mph60%29.96 "Hg10 mi
6:58 AM68 °FScattered clouds.3 mph69%29.96 "Hg9 mi
5:58 AM64 °FPartly sunny.7 mph74%29.93 "Hg9 mi
4:58 AM65 °FPassing clouds.7 mph73%29.92 "Hg10 mi
3:58 AM65 °FClear.7 mph69%29.92 "Hg10 mi
2:58 AM67 °FClear.8 mph65%29.91 "Hg10 mi
1:58 AM67 °FClear.8 mph64%29.91 "Hg10 mi
12:58 AM68 °FClear.5 mph63%29.92 "Hg10 mi
11:58 PM
Tue, Aug 30
69 °FClear.8 mph58%29.92 "Hg10 mi
10:58 PM73 °FClear.9 mph50%29.93 "Hg10 mi
9:58 PM74 °FClear.9 mph48%29.92 "Hg10 mi
8:58 PM75 °FClear.10 mph46%29.90 "Hg10 mi
7:58 PM79 °FPassing clouds.10 mph38%29.88 "Hg10 mi
6:58 PM80 °FClear.8 mph32%29.86 "Hg9 mi
5:58 PM85 °FPartly sunny.3 mph28%29.85 "Hg9 mi
4:58 PM84 °FPartly sunny.13 mph26%29.86 "Hg10 mi
3:58 PM86 °FScattered clouds.9 mph28%29.85 "Hg10 mi
2:58 PM88 °FPassing clouds.12 mph25%29.86 "Hg10 mi
Weather by CustomWeather, © 2016

See weather overviewHow to use our weather pages